Change the Weather History Date:

Thursday, February 6, 2014

  Actual Average Record
Temperature  
Mean Temperature 51 °F 52 °F  
Max Temperature 54 °F 59 °F 80 °F (2011)
Min Temperature 47 °F 44 °F 39 °F (2003)
Degree Days  
Heating Degree Days 14    
Month to date heating degree days 105  
Since 1 July heating degree days 1308  
Cooling Degree Days 0    
Month to date cooling degree days 0  
Year to date cooling degree days 0  
Moisture  
Dew Point 47 °F    
Average Humidity 89    
Maximum Humidity 100    
Minimum Humidity 77    
Precipitation  
Precipitation 0.28 in - 0.79 in (2015)
Month to date precipitation 0.76  
Year to date precipitation 0.76  
Since 1 July precipitation 1.96  
Sea Level Pressure  
Sea Level Pressure 29.97 in    
Wind  
Wind Speed 3 mph (East)    
Max Wind Speed 10 mph    
Max Gust Speed 13 mph    
Visibility 6 miles    
Events Rain    
T = Trace of Precipitation, MM = Missing Value Source: NWS Daily Summary

Daily Weather History Graph

Daily Weather History Graph

Search for Another Location

Airport or City:

Trip Planner

Search our weather history database for the weather conditions in past years. The results will help you decide how hot, cold, wet, or windy it might be!

Date:

Astronomy

Feb. 06, 2014 Rise Set
Actual Time 7:07 AM PST 5:38 PM PST
Civil Twilight 6:40 AM PST 6:05 PM PST
Nautical Twilight 6:09 AM PST 6:36 PM PST
Astronomical Twilight 5:38 AM PST 7:07 PM PST
Moon 11:13 AM PST 12:28 AM PST
Length of Visible Light 11h 25m
Length of Day
10h 30m
Waxing Crescent, 50% of the Moon is Illuminated
Feb 6
Waxing Crescent
Feb 14
Full
Feb 22
Last Quarter
Mar 1
New
Mar 8
First Quarter

Hourly Weather History & Observations

Time (PST) Temp. Windchill Dew Point Humidity Pressure Visibility Wind Dir Wind Speed Gust Speed Precip Events Conditions
12:54 AM 48.0 °F - 44.1 °F 86% 30.07 in 8.0 mi East 3.5 mph - 0.00 in Rain Light Rain
1:54 AM 46.9 °F - 44.1 °F 90% 30.06 in 5.0 mi East 4.6 mph - 0.02 in Rain Light Rain
2:46 AM 46.4 °F 44.3 °F 44.6 °F 93% 30.01 in 5.0 mi East 4.6 mph - 0.11 in Rain Rain
2:54 AM 46.9 °F - 44.1 °F 90% 30.04 in 5.0 mi East 6.9 mph - 0.13 in Rain Rain
3:05 AM 46.4 °F 42.9 °F 44.6 °F 93% 30.00 in 7.0 mi ESE 6.9 mph - 0.01 in Rain Light Rain
3:54 AM 46.9 °F - 45.0 °F 93% 30.01 in 3.0 mi ESE 4.6 mph - 0.03 in Rain Light Rain
4:01 AM 46.4 °F 43.5 °F 44.6 °F 93% 29.98 in 3.0 mi ESE 5.8 mph - 0.01 in Rain Light Rain
4:54 AM 46.9 °F - 45.0 °F 93% 30.00 in 7.0 mi East 4.6 mph - 0.02 in Rain Light Rain
5:10 AM 46.4 °F 45.2 °F 44.6 °F 93% 29.96 in 6.0 mi East 3.5 mph - 0.00 in Rain Light Rain
5:54 AM 46.9 °F - 45.0 °F 93% 29.98 in 4.0 mi East 4.6 mph - 0.04 in Rain Light Rain
6:54 AM 46.9 °F - 45.0 °F 93% 29.96 in 6.0 mi NE 4.6 mph - 0.04 in Rain Light Rain
7:05 AM 46.4 °F 45.2 °F 44.6 °F 93% 29.92 in 6.0 mi East 3.5 mph - 0.00 in Rain Light Rain
7:54 AM 46.9 °F - 45.0 °F 93% 29.94 in 6.0 mi Calm Calm - 0.00 in Rain Light Rain
8:13 AM 46.4 °F 45.2 °F 44.6 °F 93% 29.91 in 7.0 mi SE 3.5 mph - 0.00 in Rain Light Rain
8:24 AM 48.2 °F - 46.4 °F 93% 29.90 in 2.5 mi Calm Calm - 0.00 in Rain Light Rain
8:34 AM 48.2 °F - 46.4 °F 93% 29.90 in 1.8 mi Calm Calm - 0.00 in Rain Light Rain
8:43 AM 48.2 °F - 48.2 °F 100% 29.90 in 2.0 mi Calm Calm - 0.00 in Rain Light Rain
8:54 AM 48.0 °F - 46.9 °F 96% 29.94 in 2.5 mi South 3.5 mph - 0.00 in Rain Light Rain
9:11 AM 48.2 °F - 48.2 °F 100% 29.91 in 4.0 mi Calm Calm - 0.00 in   Overcast
9:45 AM 48.2 °F - 46.4 °F 93% 29.93 in 1.8 mi SSW 4.6 mph - 0.00 in Rain Light Rain
9:54 AM 48.9 °F - 46.9 °F 93% 29.96 in 1.8 mi South 3.5 mph - 0.00 in Rain Light Rain
10:12 AM 48.2 °F - 46.4 °F 93% 29.93 in 2.0 mi SSE 3.5 mph - 0.00 in   Overcast
10:33 AM 48.2 °F - 46.4 °F 93% 29.94 in 1.5 mi Calm Calm - 0.00 in Rain Light Rain
10:41 AM 48.2 °F - 48.2 °F 100% 29.94 in 1.2 mi NNE 3.5 mph - 0.00 in Rain Light Rain
10:54 AM 48.9 °F - 48.0 °F 97% 29.96 in 1.5 mi North 3.5 mph - 0.00 in Rain Light Rain
11:05 AM 50.0 °F - 48.2 °F 94% 29.92 in 2.0 mi NE 3.5 mph - 0.00 in   Overcast
11:13 AM 50.0 °F - 48.2 °F 94% 29.93 in 3.0 mi NE 3.5 mph - 0.00 in   Overcast
11:54 AM 52.0 °F - 48.0 °F 86% 29.94 in 10.0 mi NE 9.2 mph - 0.00 in   Overcast
12:07 PM 51.8 °F - 48.2 °F 88% 29.91 in 10.0 mi NE 8.1 mph - N/A   Overcast
12:54 PM 53.1 °F - 48.0 °F 83% 29.93 in 10.0 mi ENE 6.9 mph - N/A   Overcast
1:54 PM 53.1 °F - 46.9 °F 80% 29.94 in 10.0 mi Calm Calm - N/A   Overcast
2:20 PM 51.8 °F - 48.2 °F 88% 29.93 in 8.0 mi West 6.9 mph - N/A   Overcast
2:38 PM 51.8 °F - 48.2 °F 88% 29.93 in 2.0 mi NW 5.8 mph - 0.00 in Rain Light Rain
2:54 PM 51.1 °F - 48.9 °F 92% 29.96 in 2.5 mi Calm Calm - 0.00 in   Overcast
3:11 PM 51.8 °F - 50.0 °F 94% 29.92 in 5.0 mi Calm Calm - N/A   Overcast
3:31 PM 50.0 °F - 48.2 °F 94% 29.93 in 8.0 mi Calm Calm - N/A   Overcast
3:37 PM 51.8 °F - 50.0 °F 94% 29.93 in 2.5 mi Calm Calm - N/A   Overcast
3:54 PM 51.1 °F - 50.0 °F 96% 29.96 in 8.0 mi Calm Calm - N/A   Overcast
4:00 PM 51.8 °F - 48.2 °F 88% 29.93 in 9.0 mi Calm Calm - N/A   Overcast
4:07 PM 51.8 °F - 48.2 °F 88% 29.93 in 4.0 mi WNW 3.5 mph - N/A   Overcast
4:54 PM 50.0 °F - 48.0 °F 93% 29.96 in 10.0 mi West 5.8 mph - N/A   Overcast
5:01 PM 50.0 °F - 48.2 °F 94% 29.94 in 10.0 mi West 3.5 mph - N/A   Overcast
5:54 PM 50.0 °F - 48.0 °F 93% 29.98 in 10.0 mi Calm Calm - N/A   Overcast
6:54 PM 50.0 °F - 48.0 °F 93% 30.00 in 10.0 mi Calm Calm - N/A   Overcast
7:07 PM 50.0 °F - 48.2 °F 94% 29.98 in 9.0 mi Calm Calm - N/A   Overcast
7:54 PM 48.9 °F - 48.0 °F 97% 30.02 in 5.0 mi Calm Calm - N/A   Mostly Cloudy
8:17 PM 48.2 °F - 48.2 °F 100% 30.00 in 6.0 mi Calm Calm - N/A   Overcast
8:47 PM 48.2 °F - 48.2 °F 100% 30.01 in 6.0 mi Calm Calm - N/A   Overcast
8:54 PM 48.9 °F - 48.0 °F 97% 30.03 in 6.0 mi Calm Calm - N/A   Overcast
9:28 PM 48.2 °F - 48.2 °F 100% 30.00 in 9.0 mi Calm Calm - N/A   Mostly Cloudy
9:54 PM 48.9 °F - 48.0 °F 97% 30.04 in 6.0 mi Calm Calm - N/A   Overcast
10:54 PM 50.0 °F - 48.9 °F 96% 30.04 in 6.0 mi SSE 3.5 mph - N/A   Overcast
11:18 PM 50.0 °F - 48.2 °F 94% 30.01 in 2.0 mi SSE 5.8 mph - 0.00 in Rain Light Rain
11:29 PM 50.0 °F - 48.2 °F 94% 30.01 in 5.0 mi SSE 6.9 mph - 0.00 in   Overcast
11:54 PM 48.9 °F - 48.9 °F 100% 30.04 in 7.0 mi SSE 4.6 mph - 0.00 in   Overcast